Location: Grandview
(34.8900°N, 117.1058°W)
Time: 18:41:26
(UTC-08:00)

Envisat - Pass Details

Date: 13 October 2017
Orbit: 764 x 766 km, 98.2° (Epoch: 13 December)

Event Time Altitude Azimuth Distance (km) Brightness Sun altitude
Exits shadow 19:37:14 17° 43° (NE) 1,892 4.7 -17.5°
Drops below altitude 10° 19:39:07 10° 23° (NNE) 2,308 5.3 -17.9°
Sets 19:42:02 0° 6° (N) 3,239 6.2 -18.5°
